COSMOS 1275 DEB, 17633

Orbit data source: Space-Track

COSMOS 1275 DEB, 17633 is space debris in LEO originally from a launch on Thu, 04 Jun 1981 UTC launched from the Plesetsk Missile And Space Complex (PKMTR). Debris objects in space refer to the collection of defunct objects orbiting the Earth. Examples of debris include non-operational satellites, rocket bodies, and fragments generated from explosions, collisions, or faulty payload assembly.

Loading next visibility...
Identifier
17633, 1981-053LC
Orbit
LEO
Country
Flag of CISCIS
Related business
Manufacturer
Unknown
Mission
Spacecraft
Bus & Motor
Unknown
Mass
Unknown
Launch date (UTC)
1981-06-04 (45 years ago)
Launch vehicle
Unknown
Launch site
Plesetsk Missile And Space Complex (PKMTR)
Object type
Payload
Rocket body
Debris
Shape & HBR
Unknown shape, 0.1 m
Radar Cross Section
Medium (>0.1 m² and <1 m²)

Expand to show TLE details & history
Last TLE update: 1 day ago

TLE from 1 day ago
0 COSMOS 1275 DEB
1 17633U 81053LC  26254.54675372  .00002515  00000-0  18512-2 0  9997
2 17633  83.0611  69.6656 0156060 140.7153 285.2655 13.89594140 53328
Epoch: 2026-09-11T13:07Z
TLE epoch observation values (Epoch: 2026-09-11T13:07:19.521Z)
Latitude
63.47937°
Longitude
-103.69434°
Altitude
912.615 km
Speed
7.416 km/s
True Right ascension
05h 34m 49s
True Declination
63° 20' 41"
Sunlit
Object was in daylight at epoch
Visualization orbit readout
Latitude
Unknown
Longitude
Unknown
Altitude
Unknown
Speed
Unknown
Apparent Right ascension
Unknown
Apparent Declination
Unknown
Sunlit
N/A
Visualization observer readout
Local Sidereal Time
05:38:29
Azimuth
Unknown
Elevation
Unknown
Doppler factor
Unknown
Orbital elements
Apogee altitude
1,041.183 km
Perigee altitude
813.17 km
Semi-major axis
7,305.314 km
Eccentricity
0.01561
Inclination
83.0611°
RAAN
69.6656°
Arg. of periapsis
140.7153°
True anomaly
283.53164°
Mean anomaly
285.2655°
Eccentric anomaly
284.39943°
Mean motion
3.47604 °/min
Orbital period
103.57 mins
BSTAR
0.0018512
Loading maneuver chart data...
Computing Atmospheric mass density...
Loading historical data...
Loading historical data...
Loading historical data...
Loading historical data...
Loading historical data...
Loading historical data...
Loading historical data...

Documentation

Showing up to 5 results
|